Wind_Speed
21 21 22 22 22 22 22 22 22 22 22 22 22 22 21 22 22 22 22 22 21 21 21 20 19 19 18 17 17 16 15 15 16 16 17 18 18 18 18 19 19 20 21 21 22 22 23 23 23 24 24 24 24 24 24 24 24 24 25 25 24 23 24 24 23 24 24 25 26 27 29 30 32 32 32 30 28 28 26 25 25 23 21 20 19 19 20 21
21 21 22 22 22 23 23 23 23 23 23 22 22 22 22 22 22 22 23 22 22 22 21 21 20 19 19 18 18 17 16 16 16 16 17 18 18 19 19 19 19 20 20 21 21 22 23 23 24 24 24 25 25 24 24 24 25 25 25 25 25 26 26 24 24 25 24 26 27 28 29 30 32 32 32 30 30 29 26 27 26 24 22 21 21 19 20 20
22 21 22 22 22 23 23 23 23 23 23 23 23 22 22 23 22 22 22 22 22 22 21 21 20 20 19 19 18 18 17 17 16 16 17 18 18 19 20 21 21 21 20 21 21 22 22 23 23 24 24 24 24 25 25 25 25 26 26 26 27 28 26 25 26 25 25 26 27 28 29 30 31 32 32 31 32 31 28 28 28 25 24 23 22 21 20 20
22 21 22 22 22 22 23 23 23 24 24 24 23 23 23 23 23 22 22 22 21 22 21 21 20 20 20 19 19 18 18 18 17 17 17 17 18 19 20 21 22 22 22 21 21 21 22 22 22 23 24 24 24 25 25 26 26 27 27 28 29 28 26 27 27 26 26 27 27 29 30 30 32 32 32 32 32 30 30 31 30 27 26 24 24 24 21 21
21 21 22 22 22 23 23 23 23 24 24 24 24 23 23 23 23 23 22 22 21 21 21 20 20 20 20 20 19 19 19 18 17 17 18 18 18 18 19 20 21 22 23 23 22 22 22 22 22 23 24 24 25 25 26 26 27 28 28 29 29 28 28 29 28 28 28 27 28 30 30 32 33 32 33 33 31 30 32 33 31 29 28 26 25 25 23 23
22 22 22 22 23 23 24 24 24 25 25 25 24 23 23 24 24 23 23 22 21 21 20 20 20 20 20 20 19 19 19 18 18 18 18 18 18 18 18 19 20 21 22 23 24 23 23 23 23 24 24 25 26 26 26 26 27 28 28 28 28 28 29 29 29 29 29 28 29 31 32 33 33 33 34 33 32 32 33 32 30 30 30 28 27 27 25 25
22 22 22 23 23 23 24 25 25 25 25 25 25 24 24 25 25 24 23 21 21 20 20 19 19 19 19 19 19 19 19 19 18 18 18 17 17 17 17 18 19 20 21 22 23 24 24 24 24 24 24 25 25 25 25 26 26 27 27 27 28 28 28 29 28 28 28 28 29 30 32 33 33 35 36 34 32 33 33 32 31 31 31 29 29 28 26 26
23 23 23 23 23 24 24 25 25 26 26 26 25 25 25 24 25 24 22 21 20 20 19 18 18 18 18 18 18 19 19 18 18 17 16 16 16 16 17 17 18 19 19 21 22 22 23 23 23 23 24 24 24 24 24 24 25 26 26 26 27 27 27 28 28 28 28 28 28 29 31 33 35 36 35 34 34 34 34 33 32 32 32 31 31 30 28 28
24 24 24 24 24 24 24 25 25 25 26 26 26 26 24 23 25 23 21 20 19 19 18 18 17 17 17 17 18 18 18 17 17 17 16 16 16 17 17 17 17 18 19 20 20 21 21 21 22 22 22 22 22 23 23 24 24 24 24 24 24 25 25 26 27 27 26 27 28 28 30 33 35 34 35 36 37 36 34 33 34 33 33 33 32 32 30 29
25 24 24 24 25 25 25 26 26 26 26 26 26 25 23 23 24 21 19 20 19 18 18 17 16 16 16 16 17 17 16 17 17 17 16 17 17 17 17 17 17 18 19 19 20 20 20 20 20 20 21 21 21 21 21 22 21 21 21 22 22 22 22 23 24 24 24 25 25 27 29 31 33 33 35 38 38 37 35 35 35 35 35 34 34 34 32 31
25 25 25 25 25 26 26 27 27 27 26 26 25 24 23 23 23 20 19 19 18 18 18 17 16 16 16 16 16 16 16 16 16 16 16 16 16 16 17 17 17 18 18 19 19 19 19 19 19 19 19 19 19 19 19 19 19 19 19 20 20 20 20 21 22 22 23 23 24 25 26 28 31 33 36 38 37 37 37 36 35 36 37 36 35 35 35 33
25 25 25 26 27 26 27 28 28 28 26 25 25 24 23 22 21 20 19 18 18 17 17 17 17 16 16 16 16 16 16 16 16 16 16 16 16 16 16 17 17 17 18 18 18 18 18 18 17 17 17 17 17 16 16 17 17 17 18 19 20 20 21 21 22 22 23 23 23 23 24 27 30 32 34 36 37 38 38 36 37 39 39 38 37 36 37 35
26 26 26 27 28 28 28 28 29 29 28 26 25 24 23 22 20 18 18 18 18 17 17 18 18 17 17 16 16 15 16 16 16 16 16 16 16 16 16 16 16 16 16 17 17 17 16 16 15 15 15 16 15 15 15 15 15 16 17 19 19 20 22 21 21 22 22 23 23 21 22 28 30 30 32 34 35 38 38 37 39 41 40 39 39 37 38 37
26 26 26 27 28 29 29 30 30 30 28 27 26 24 22 21 18 17 17 17 17 17 17 18 18 17 17 16 16 15 15 15 16 15 15 15 15 15 15 16 16 15 15 16 16 16 16 15 15 14 14 15 14 14 15 14 16 16 17 19 18 20 22 21 20 22 22 22 22 20 20 27 28 27 31 33 34 36 37 38 40 42 40 41 41 39 39 39
26 26 27 28 29 29 30 31 31 30 29 27 26 23 22 20 18 17 17 17 16 17 17 18 17 17 17 16 15 15 15 15 15 15 15 15 15 14 15 15 15 15 15 15 15 15 15 15 14 14 14 15 15 15 15 15 17 17 18 19 17 19 22 20 20 22 23 22 23 20 19 25 25 23 28 31 33 36 36 36 39 41 41 42 42 41 41 40
26 26 27 28 29 30 31 31 31 30 29 27 25 23 21 20 19 17 16 15 15 16 17 17 17 17 17 16 15 15 15 14 14 14 15 15 14 14 14 14 14 14 14 14 14 15 14 13 13 14 14 15 16 16 16 17 18 17 19 19 18 19 22 22 21 22 23 23 23 20 20 23 23 22 25 27 31 35 35 34 35 40 42 43 43 43 43 42
26 26 27 28 29 30 31 31 31 30 28 26 25 23 21 20 18 17 16 14 14 15 16 17 17 17 17 16 15 14 14 14 14 13 13 13 13 13 13 13 13 13 13 13 14 14 13 12 13 14 15 16 16 15 16 17 18 18 19 20 20 20 21 23 23 22 23 23 22 21 21 22 22 22 24 25 28 31 34 34 34 38 41 43 45 45 45 44
26 26 27 28 29 30 31 31 31 29 27 25 24 22 21 19 17 17 15 13 13 14 14 16 16 17 16 16 15 14 14 14 13 13 12 12 12 12 12 12 12 13 13 13 14 13 12 12 13 14 15 16 16 15 16 17 18 18 19 20 20 20 20 22 24 23 23 23 23 22 22 22 22 23 24 25 26 28 32 35 35 37 39 42 45 46 46 46
26 26 27 28 29 30 30 30 29 27 26 25 23 22 21 19 17 16 15 14 13 13 13 14 15 16 16 15 15 14 13 13 12 11 11 11 11 12 12 11 11 11 12 13 14 13 13 14 14 16 16 16 16 16 17 17 18 19 19 19 19 20 21 22 24 24 23 22 21 21 22 23 22 22 23 24 25 26 29 32 33 35 38 40 44 47 48 48
26 25 27 28 29 29 30 30 29 27 26 25 24 22 21 19 17 15 14 14 13 13 13 14 14 15 15 14 14 13 12 12 12 11 10 10 11 11 11 10 10 11 12 13 13 13 14 15 17 17 17 17 17 18 18 18 18 18 18 19 19 19 21 23 23 23 22 21 20 20 21 22 21 22 23 24 24 25 26 29 31 33 36 37 41 46 48 50
25 25 26 28 28 29 29 29 29 28 27 27 25 23 21 19 16 15 15 14 14 14 14 13 13 14 14 13 12 11 10 10 11 10 10 10 10 11 10 9 10 11 12 12 12 13 15 17 18 18 17 18 19 19 18 18 18 18 18 19 19 19 21 23 22 22 21 19 20 20 21 21 21 22 23 24 25 24 25 26 28 30 32 34 37 43 48 50
25 25 26 27 28 29 29 29 29 28 29 28 27 24 21 18 16 15 14 14 13 13 13 13 13 13 12 11 10 10 9 9 10 10 10 10 10 10 10 9 10 11 11 12 12 14 15 17 18 17 18 19 19 19 18 17 17 18 18 18 18 18 21 22 21 22 21 19 20 21 21 21 22 22 23 24 25 25 24 24 26 27 28 31 33 38 44 49
25 25 26 27 28 28 29 29 29 29 30 30 27 24 21 17 15 14 13 12 12 12 12 13 12 11 10 9 9 9 10 10 11 11 11 10 10 10 10 10 10 11 12 12 13 14 15 16 17 18 19 19 19 18 17 17 17 17 18 17 18 19 19 19 20 21 20 20 21 21 21 22 23 23 24 25 25 25 24 24 25 26 27 28 29 32 38 45
25 25 25 26 27 28 28 29 29 29 31 30 26 23 19 17 15 13 12 12 12 12 13 12 11 10 9 8 8 9 10 11 10 10 10 10 10 10 10 11 11 12 14 13 14 15 16 17 18 19 19 18 18 17 16 17 17 17 18 18 19 20 19 19 20 19 18 19 20 20 22 24 24 24 24 25 26 25 25 25 26 27 27 27 27 29 33 39
24 24 25 26 27 27 28 29 28 29 30 29 25 21 18 17 15 13 13 12 12 13 12 11 10 10 9 9 9 9 10 10 9 8 9 9 9 10 10 11 10 11 14 14 14 15 15 17 18 18 17 17 16 16 16 16 15 16 19 18 18 20 19 19 20 19 18 19 20 19 21 25 26 26 25 25 27 26 26 27 28 28 27 26 26 27 30 34
24 23 24 26 27 27 27 28 28 29 29 28 24 20 18 16 15 14 14 13 14 13 12 11 11 10 10 10 10 9 8 8 7 8 9 9 10 10 10 10 10 11 14 14 12 13 14 16 16 16 16 16 15 15 15 16 14 15 18 19 19 19 19 18 19 18 17 18 19 19 20 22 26 28 26 25 27 27 27 28 29 30 29 27 27 27 28 30
23 22 23 25 26 26 27 27 27 28 28 26 22 19 17 16 17 16 15 15 15 13 12 12 11 11 11 10 8 8 7 8 8 9 10 10 10 11 9 10 10 11 14 12 10 12 14 14 14 14 14 14 14 13 15 15 14 15 19 19 19 19 18 18 17 17 18 20 20 20 22 22 24 28 25 24 27 28 28 29 31 31 31 30 29 27 27 28
23 22 23 24 25 26 26 27 27 27 27 25 21 18 17 18 19 18 16 15 14 13 13 13 12 11 11 8 6 7 8 9 9 9 11 11 10 10 9 9 10 11 13 11 10 13 14 13 13 13 12 12 13 14 16 16 14 16 18 18 19 18 18 17 17 17 18 19 20 21 23 22 24 28 25 23 26 27 28 30 31 32 32 31 30 29 28 27
22 22 22 23 24 25 25 26 26 27 26 24 20 17 17 19 20 18 16 15 15 16 15 13 11 10 8 6 5 6 8 10 10 10 11 12 11 10 9 11 10 11 12 10 11 14 14 13 13 12 11 12 14 15 16 16 15 16 16 16 17 16 16 16 16 17 18 18 20 21 22 19 21 25 24 22 24 26 28 30 30 31 32 31 31 30 29 29
22 22 22 23 24 24 25 25 25 26 26 23 19 17 17 19 19 18 17 16 16 17 15 12 10 7 5 5 5 6 8 10 11 12 12 11 11 11 10 11 10 9 10 10 11 13 13 12 12 12 12 12 14 15 16 16 15 15 14 13 14 13 14 15 15 16 17 17 20 22 21 19 21 24 21 19 21 23 26 29 29 30 30 31 31 30 30 30
21 22 22 22 23 24 24 24 24 25 25 23 20 17 18 19 18 17 17 16 16 15 12 10 7 5 4 5 6 8 9 10 11 12 11 9 9 11 10 9 9 8 9 11 11 10 10 11 11 12 13 14 15 15 15 15 14 13 12 11 11 12 13 13 13 14 14 15 18 20 21 21 23 24 18 16 18 19 22 25 27 28 29 30 30 30 30 30
22 21 22 22 22 23 24 24 24 24 24 23 20 18 18 19 19 17 16 17 15 12 9 7 5 5 5 7 8 10 11 12 13 13 11 9 9 11 10 9 9 8 9 11 10 9 9 10 11 13 14 14 14 14 14 14 13 11 10 9 9 10 12 12 12 12 12 14 16 17 19 21 24 23 18 16 17 17 19 22 24 26 27 28 30 30 29 30
22 21 21 21 22 23 23 24 23 23 23 22 20 18 18 19 19 17 17 16 13 9 7 5 5 7 8 9 10 12 13 13 14 14 12 10 10 11 11 11 11 10 11 11 10 10 10 10 12 13 13 13 13 13 14 13 12 11 9 9 8 10 11 11 11 12 12 14 15 15 17 20 21 20 18 18 19 18 19 21 23 24 25 26 28 29 29 29
22 21 21 21 21 22 23 23 23 23 23 21 19 18 18 19 19 17 16 14 10 7 5 5 6 8 9 10 11 13 14 14 15 14 11 10 10 11 13 13 12 11 11 11 10 10 10 10 12 12 12 13 13 14 14 13 13 13 10 9 9 10 12 10 10 12 12 14 14 14 16 18 17 15 17 20 20 20 20 22 23 23 23 24 26 27 29 29
22 21 21 21 21 22 22 22 22 23 22 21 19 18 18 19 18 18 17 12 7 5 5 5 7 9 10 11 12 14 15 16 16 13 11 10 11 13 14 13 12 11 10 10 9 9 9 11 13 13 13 13 14 15 13 12 13 13 10 9 10 11 11 11 11 12 13 14 15 14 16 17 15 14 16 19 20 20 19 21 23 23 23 23 24 26 28 29
21 21 22 22 21 22 22 22 22 22 22 20 19 18 18 18 18 18 16 11 6 5 5 6 8 9 11 12 14 16 16 16 17 15 12 12 12 13 13 13 12 11 10 9 9 9 10 11 12 13 13 14 15 15 12 11 13 11 9 10 11 11 10 10 11 12 12 13 14 14 15 16 15 15 17 19 19 18 19 21 22 21 22 22 22 25 27 29
20 21 22 22 22 22 21 22 22 22 22 20 18 18 18 18 18 18 16 10 6 5 6 6 8 10 12 14 16 17 18 18 17 15 13 12 11 12 12 11 11 10 9 9 9 9 10 11 13 13 14 16 15 12 10 11 11 9 9 10 9 9 9 9 10 10 10 12 13 14 16 17 16 16 17 18 18 18 17 19 22 21 20 20 20 23 26 28
20 21 22 22 22 22 21 21 21 21 21 20 18 17 18 18 17 17 16 10 6 5 6 7 8 10 12 15 17 18 20 19 17 14 12 11 9 9 8 8 8 7 7 7 9 9 9 11 13 13 15 16 13 10 9 10 10 7 8 9 9 8 8 8 9 8 9 10 11 12 13 14 14 15 17 18 19 19 17 16 20 22 21 19 18 19 22 25
20 21 22 23 23 22 21 21 21 21 21 20 18 17 17 18 17 17 16 12 7 6 7 7 9 11 13 15 17 19 20 19 14 11 9 8 7 6 6 5 5 5 5 7 8 8 9 10 12 13 16 15 12 10 10 10 9 8 7 9 10 9 8 7 7 7 8 9 8 7 7 9 12 14 14 15 16 17 18 16 16 21 22 20 19 18 19 20
20 21 22 23 24 23 22 21 20 21 21 19 17 17 17 17 17 17 16 13 8 7 7 7 9 11 13 16 17 19 20 16 11 8 7 5 3 3 3 2 3 3 4 6 7 7 8 10 11 15 16 15 13 12 9 9 10 10 9 9 10 10 9 7 7 7 8 7 5 3 3 7 11 11 13 14 13 14 15 11 11 16 19 19 19 19 19 19
21 21 22 23 24 24 23 21 20 21 20 19 17 16 16 17 17 16 16 13 9 8 8 7 9 11 13 16 18 20 19 13 9 7 5 2 1 1 1 0 2 3 4 5 5 7 8 10 12 14 15 14 13 11 7 5 8 10 10 10 11 11 10 7 6 7 7 5 4 3 4 7 9 9 10 9 8 8 8 7 10 14 15 15 16 17 18 19
22 22 22 23 24 24 23 22 21 20 20 19 17 16 15 16 16 16 15 12 9 8 8 7 9 11 13 16 18 19 18 12 9 8 3 1 2 3 2 1 3 4 4 4 5 7 8 10 12 13 14 14 12 8 5 2 4 7 8 10 11 11 10 8 7 7 6 4 4 2 2 4 6 6 6 7 7 6 7 9 11 13 14 15 16 15 14 14
22 22 23 23 23 23 24 23 22 21 21 19 17 16 15 15 16 15 15 12 9 8 8 7 9 11 13 15 17 18 16 11 9 8 2 3 4 4 1 3 5 5 4 4 6 7 8 10 11 12 13 14 10 6 5 3 1 5 9 12 13 12 11 10 8 7 5 5 5 3 2 4 6 8 7 8 7 7 8 9 11 11 11 14 17 15 12 11
23 23 23 23 23 23 23 23 22 21 21 20 17 16 15 15 15 15 15 11 8 8 8 7 9 11 13 15 16 17 15 10 9 7 1 3 4 4 2 5 7 7 6 6 6 6 7 9 10 10 12 12 9 6 4 3 3 7 10 13 14 12 12 10 8 7 5 6 6 5 3 4 6 7 7 7 7 7 7 9 10 9 8 10 13 13 12 11
23 23 23 23 22 23 23 23 23 22 21 20 18 17 16 15 15 15 15 11 8 8 8 8 9 11 13 14 16 16 13 9 8 5 1 3 4 5 4 6 8 8 7 6 6 6 7 9 8 9 11 11 8 5 3 3 5 7 9 13 14 13 13 12 9 7 6 6 7 5 4 5 7 7 7 6 5 5 6 8 9 9 9 9 8 9 9 8
22 23 23 23 22 22 22 22 22 22 21 20 19 17 16 15 15 15 14 11 8 8 8 7 9 11 13 14 15 15 12 8 6 4 1 3 4 4 4 6 7 8 7 6 5 6 7 8 7 8 10 9 7 5 3 2 4 5 8 12 14 13 15 14 11 8 7 7 7 5 5 5 6 6 5 3 3 5 6 6 7 7 7 6 6 6 6 5
22 23 23 22 22 21 21 22 22 21 22 21 19 17 16 15 14 14 14 11 8 8 8 7 8 10 12 13 14 14 12 8 6 5 3 3 3 3 3 5 7 7 6 5 5 6 6 7 7 8 9 9 7 6 4 3 2 4 8 12 13 13 15 16 13 10 10 9 7 6 6 6 5 5 4 3 2 3 4 4 5 4 3 3 3 3 3 3
22 22 22 22 22 21 21 21 22 22 22 21 19 17 16 15 14 13 13 11 9 8 8 7 8 10 12 14 14 14 12 8 6 5 5 5 4 3 3 5 6 5 5 5 5 6 6 6 7 8 7 8 8 7 5 4 3 4 8 12 13 14 14 15 14 12 12 11 9 8 9 7 6 5 4 3 2 2 2 2 2 2 2 2 2 3 3 5
23 22 21 21 21 21 20 21 21 22 22 21 20 18 16 15 14 13 12 10 8 8 8 7 7 9 11 14 15 15 13 9 6 6 6 6 6 5 4 5 5 5 5 5 5 6 6 7 8 8 8 8 8 8 7 5 4 5 8 11 13 13 13 14 14 14 13 12 10 10 10 9 8 7 6 5 5 4 4 5 5 6 6 6 6 6 7 9
24 23 21 21 21 21 20 20 21 21 21 21 20 19 17 16 14 12 12 10 8 8 8 7 7 9 11 13 14 16 15 10 6 6 6 7 7 6 4 4 4 5 5 5 5 5 6 6 8 8 8 9 9 8 9 8 6 6 7 9 11 11 12 12 12 13 13 13 11 11 11 10 9 8 7 6 6 5 6 7 8 8 8 8 8 9 11 12
24 23 22 21 21 21 20 20 20 21 21 21 20 19 18 17 15 12 12 11 9 8 8 7 7 8 10 12 13 15 16 11 6 6 7 7 7 7 5 4 4 4 4 4 4 5 6 6 6 8 8 8 8 8 8 9 8 7 6 8 9 10 10 10 10 11 11 11 11 10 10 11 10 9 8 7 6 6 7 8 9 9 9 9 8 9 9 10
25 24 23 21 21 21 21 20 19 20 20 20 19 19 18 18 16 13 12 11 9 9 8 7 7 8 10 11 13 15 16 11 6 5 6 7 7 7 6 5 4 4 4 4 4 4 6 6 5 6 5 6 7 7 6 8 8 7 7 7 7 8 8 8 9 9 10 10 11 11 11 11 11 10 9 7 7 7 7 8 8 7 6 6 6 5 6 7
Wind_Direction
327 326 324 323 322 320 318 317 316 314 312 311 309 307 304 300 296 294 292 290 290 288 286 284 283 282 281 280 279 278 277 274 271 267 265 264 264 262 261 259 258 257 255 254 253 252 250 249 249 248 248 249 249 249 248 249 250 250 251 253 254 252 250 248 246 244 243 243 242 242 242 243 244 244 243 244 244 244 247 249 251 251 250 251 248 245 246 242
327 326 324 324 323 321 319 317 316 315 314 313 312 310 307 303 299 296 293 291 289 287 286 284 282 281 280 278 278 277 277 276 274 270 267 266 265 263 261 259 257 256 256 254 253 252 250 249 248 248 248 248 249 249 249 249 250 250 251 252 252 251 250 249 247 245 243 242 242 243 243 244 245 246 245 244 244 244 244 248 249 249 248 247 247 243 242 240
328 326 324 324 323 321 320 318 316 315 314 313 313 312 311 308 304 300 297 294 291 287 285 284 282 280 279 278 278 277 277 276 275 273 269 268 266 263 260 258 257 256 255 255 253 251 250 249 248 248 248 248 249 249 249 250 250 250 251 251 250 251 251 249 247 244 243 242 242 242 243 244 246 247 246 244 244 244 244 247 247 246 245 245 244 242 240 238
328 325 324 323 322 320 318 316 314 313 313 312 313 313 312 310 309 306 301 297 294 289 286 284 283 280 279 278 278 277 277 276 276 273 271 269 267 263 260 258 256 255 254 254 253 251 249 249 248 248 248 249 249 249 250 250 250 251 251 250 251 252 251 248 247 244 242 241 241 241 241 243 244 245 246 245 244 244 243 244 244 243 243 242 243 242 238 237
327 324 323 322 320 318 317 315 313 311 311 311 311 312 312 311 311 309 305 300 296 293 289 286 284 282 280 279 278 277 277 276 275 273 271 270 267 264 261 258 256 254 252 252 251 250 249 248 248 249 249 250 249 250 251 251 252 252 252 253 254 254 252 251 249 246 243 239 239 240 240 241 242 244 245 244 243 242 242 242 243 244 242 240 240 240 237 238
327 325 323 321 319 317 316 314 312 310 309 309 309 309 309 310 310 310 308 304 299 295 293 291 287 285 282 280 278 277 277 276 274 272 271 269 267 264 261 258 255 252 251 250 249 249 249 249 250 250 251 252 251 252 252 253 253 254 255 256 256 255 254 254 252 250 248 243 241 240 241 241 241 243 243 243 243 242 242 241 242 243 242 240 239 239 236 237
328 326 324 322 321 318 316 314 312 310 308 308 307 307 307 308 308 306 307 306 302 298 295 294 291 289 286 283 280 278 277 276 274 272 270 269 266 263 260 257 254 252 250 249 248 249 250 250 251 253 253 254 254 255 256 255 255 255 256 256 256 256 255 256 254 253 250 247 244 242 243 243 242 243 244 243 242 242 241 240 239 240 240 239 238 238 235 235
328 327 326 324 323 321 319 317 314 311 309 308 306 306 307 309 309 304 302 305 303 301 298 295 294 293 290 287 284 281 279 277 275 273 270 267 264 261 259 257 255 253 252 251 250 250 251 252 253 254 255 255 255 255 255 254 254 254 255 255 255 255 255 256 255 253 251 249 246 244 244 244 243 243 245 245 243 241 241 240 239 238 238 237 237 236 233 232
329 329 327 327 326 325 324 321 318 315 312 310 307 307 306 310 314 306 298 303 303 302 301 297 296 295 294 291 288 285 282 279 275 273 270 267 264 260 258 257 256 255 254 254 253 253 253 254 254 254 255 254 253 252 251 251 251 252 253 253 254 255 255 255 255 254 252 250 247 245 243 243 244 245 246 245 244 242 240 239 239 238 236 235 235 235 232 230
331 330 330 329 329 329 328 325 324 321 318 315 311 310 307 309 315 309 298 301 303 302 302 300 299 298 298 297 293 289 285 281 276 273 269 266 263 260 259 258 258 258 257 256 256 255 254 252 251 251 250 249 249 248 248 249 250 251 252 252 252 253 254 255 256 256 254 252 250 247 244 244 245 245 246 244 244 244 240 237 238 238 236 234 233 234 232 228
333 332 332 331 331 331 331 328 327 326 325 322 318 314 310 310 313 310 301 300 302 302 302 301 301 301 302 301 297 294 289 283 277 273 269 265 263 261 260 260 260 259 259 257 256 255 252 250 248 247 246 246 246 245 246 247 247 249 250 252 253 254 255 257 258 259 258 257 254 252 249 247 245 244 245 245 245 245 242 238 237 238 237 234 232 232 232 229
336 335 335 333 332 333 333 330 328 329 331 328 323 318 314 311 310 307 301 299 301 302 302 302 302 303 304 303 301 297 291 285 278 273 269 267 264 263 262 261 262 261 261 259 257 254 251 248 246 246 245 245 244 243 243 244 246 248 252 256 258 259 259 258 258 259 259 259 257 256 254 251 247 245 246 246 245 244 243 239 236 236 236 235 232 231 233 231
338 338 337 335 334 335 333 331 330 332 335 331 325 321 318 314 310 305 300 298 299 302 303 302 302 304 305 304 302 298 291 285 280 275 272 270 269 268 267 265 264 263 262 261 257 251 247 244 243 243 242 243 241 239 241 243 249 253 257 261 262 262 260 258 258 258 259 259 258 256 254 254 251 248 248 247 246 246 244 240 236 235 234 235 233 230 232 232
341 340 340 337 335 336 334 333 334 335 336 332 327 325 322 319 313 305 300 297 298 300 301 301 303 304 305 305 302 296 291 287 283 279 276 273 272 271 270 268 266 263 261 259 255 249 243 240 239 240 240 241 239 240 246 250 256 261 263 262 262 262 261 258 260 260 260 260 259 256 252 256 256 250 248 247 246 247 245 242 239 237 233 233 234 231 231 232
342 341 341 338 336 337 336 336 337 338 336 332 330 327 325 322 318 309 302 299 298 299 299 300 302 304 306 305 300 295 291 288 284 281 278 274 272 270 269 267 265 262 258 256 252 248 244 241 240 241 240 241 242 245 252 256 261 264 264 262 260 260 262 261 260 262 262 260 259 254 247 256 261 254 250 247 245 245 246 244 241 238 233 231 233 232 231 231
343 343 342 340 338 337 338 339 340 339 337 334 331 329 327 324 321 314 307 303 300 299 298 300 302 304 306 304 299 296 293 289 284 280 277 275 273 270 269 268 265 260 255 253 250 246 244 241 240 240 238 241 246 252 258 261 263 263 262 262 259 260 264 264 261 261 262 260 257 252 247 255 261 258 256 251 246 244 243 244 241 238 235 230 230 230 230 230
344 344 343 341 339 338 341 341 341 341 341 338 334 332 329 325 322 316 312 308 302 299 300 301 303 304 305 303 300 299 296 291 285 281 277 276 277 274 271 268 265 258 251 249 248 245 243 240 239 239 239 243 248 254 260 263 265 264 262 262 260 260 264 265 263 261 261 259 256 253 251 255 258 258 258 255 250 246 243 242 240 237 235 231 228 228 229 230
345 344 343 343 340 340 343 343 342 343 344 343 340 337 334 331 325 319 316 312 305 302 302 303 304 305 304 302 301 299 295 290 287 283 278 277 277 277 275 270 266 259 250 246 246 246 244 242 241 241 242 245 250 254 259 263 266 265 263 263 263 262 262 263 265 263 259 258 256 254 255 256 257 256 255 253 250 248 246 243 241 237 234 231 227 225 227 229
346 345 344 343 341 342 344 343 343 343 344 344 343 341 338 337 332 324 320 316 310 305 304 304 304 304 303 301 301 300 296 292 288 285 282 280 279 277 276 272 268 260 251 246 246 245 244 243 241 242 244 246 251 256 261 266 267 266 264 264 265 264 263 263 263 262 258 256 255 255 257 257 256 253 252 250 247 246 246 246 244 238 234 231 227 224 224 227
346 346 345 344 342 343 344 344 344 342 342 342 340 337 334 333 330 324 319 315 311 307 306 306 303 302 302 303 304 302 298 295 291 289 287 284 281 278 275 272 268 259 251 249 249 247 245 245 244 244 247 250 255 260 265 268 267 266 266 264 265 265 266 264 262 259 255 254 254 256 257 255 253 252 250 247 244 244 245 247 247 243 237 232 227 224 223 225
345 346 345 345 343 344 344 344 344 342 342 342 340 336 331 327 324 318 315 313 311 310 309 308 305 304 305 306 306 302 298 295 292 292 290 287 285 281 278 272 265 258 253 252 252 250 247 248 248 249 252 254 258 262 265 267 267 267 266 266 268 268 268 266 261 257 254 253 254 255 254 254 251 251 249 245 244 243 245 248 250 248 242 235 229 224 223 223
344 345 345 345 344 344 344 344 345 343 343 344 343 339 334 329 322 317 315 314 314 314 313 312 309 308 309 309 307 303 300 296 295 295 293 291 289 286 283 275 267 264 261 258 256 256 256 257 256 255 256 256 259 262 266 268 268 267 266 269 272 271 269 267 261 257 255 253 254 255 255 254 252 250 248 245 242 241 242 246 249 250 247 240 233 226 223 222
343 344 345 346 345 344 344 344 345 344 345 346 346 343 340 336 331 327 324 323 322 320 318 317 314 313 314 313 310 307 303 299 299 298 296 294 290 286 283 277 273 270 265 263 260 259 261 262 261 259 257 257 259 262 266 267 268 268 269 271 271 269 267 264 261 258 255 254 257 258 257 256 255 252 248 242 239 237 236 241 247 249 250 247 239 230 225 223
341 343 344 346 346 344 344 345 345 345 346 348 350 349 347 348 347 343 339 334 331 328 324 321 320 320 318 315 310 304 301 299 298 298 297 294 290 286 282 279 276 275 269 263 259 259 260 259 258 258 258 259 261 264 266 267 270 274 275 275 270 267 263 257 256 258 258 259 259 259 259 258 256 254 250 242 235 232 230 234 242 247 248 248 244 236 228 224
339 343 343 344 346 344 343 345 346 346 347 350 354 355 356 358 358 354 345 338 336 333 329 327 325 322 318 313 308 304 301 300 299 298 297 294 292 287 282 276 271 272 269 261 257 258 262 261 259 259 260 261 263 265 268 269 271 277 279 277 271 265 259 253 253 258 261 262 261 259 258 259 257 253 250 244 234 228 227 229 236 243 244 246 246 241 233 227
338 342 342 343 345 344 343 345 347 347 348 352 357 358 0 2 357 349 342 336 336 336 332 328 324 319 315 312 310 309 308 305 304 302 299 300 298 291 288 283 273 269 264 261 259 257 259 261 259 259 261 262 266 270 273 273 272 273 273 272 270 264 258 254 254 257 256 257 259 257 252 255 259 256 249 243 236 227 225 227 231 236 240 242 245 244 238 231
336 340 341 342 344 344 342 345 348 348 350 353 357 359 0 357 349 343 340 337 337 337 334 327 323 318 314 313 314 315 317 315 313 308 304 304 298 292 292 286 280 275 269 267 268 264 262 263 260 259 262 265 270 271 270 272 272 269 269 271 269 263 258 256 256 256 253 254 258 257 251 249 254 256 248 241 238 229 224 226 230 233 235 239 243 244 242 235
334 337 340 341 343 343 342 345 348 349 350 352 355 357 356 351 347 343 341 339 337 337 333 325 321 318 314 316 320 318 320 319 316 311 307 306 299 293 288 276 266 266 269 266 263 265 266 266 264 262 264 266 266 262 263 271 272 270 273 274 270 264 261 259 257 256 254 255 258 258 254 248 249 253 248 240 240 234 227 226 230 233 234 235 239 241 242 238
333 334 338 340 341 342 341 343 347 349 350 351 353 354 350 347 347 346 343 341 337 334 331 324 321 320 316 322 324 317 319 317 313 312 310 306 301 294 284 276 269 266 268 262 255 262 268 270 270 268 267 264 263 262 267 274 274 275 278 277 272 269 265 262 260 257 255 255 255 255 254 249 248 252 248 241 241 239 232 228 230 233 233 233 235 236 238 238
331 331 335 338 339 341 340 341 346 348 349 350 350 349 346 347 347 345 345 343 336 333 330 325 323 322 319 326 325 319 319 315 312 313 310 306 301 295 286 282 280 273 270 264 257 261 268 272 276 280 278 272 269 271 275 279 280 281 282 277 272 270 267 266 263 260 259 257 253 253 253 247 246 250 249 243 243 240 235 232 231 232 232 233 233 233 233 235
330 329 332 336 337 339 339 340 345 347 348 348 348 346 345 347 347 344 344 340 335 335 333 328 326 323 324 329 326 324 324 320 315 312 310 306 302 298 291 283 279 273 267 263 260 261 266 273 281 288 287 283 281 281 282 283 284 284 280 272 268 267 269 270 266 262 261 259 257 254 251 245 245 250 249 243 242 239 237 234 233 232 231 232 232 232 231 231
328 327 330 334 335 337 337 339 343 346 347 347 345 344 344 346 345 343 341 338 338 340 339 333 328 328 334 334 331 329 326 321 317 313 307 300 296 289 279 272 267 262 262 263 264 264 264 271 280 286 286 286 287 286 286 287 285 282 275 265 259 260 267 267 263 264 262 262 262 255 249 245 244 248 248 242 240 237 236 235 233 231 230 229 230 231 230 228
326 326 328 331 333 335 336 337 341 344 346 346 344 343 344 344 343 341 340 339 340 342 342 338 333 336 339 333 330 328 322 318 316 314 307 298 290 279 270 266 258 249 254 261 267 270 274 279 283 288 290 290 290 288 286 286 283 279 271 260 248 244 254 258 258 262 262 263 264 254 248 248 247 247 245 242 240 237 237 236 232 230 229 227 226 227 229 228
324 324 326 329 331 332 334 336 339 342 344 344 343 341 342 342 340 338 339 340 339 339 338 335 333 337 336 329 325 323 319 317 316 314 307 294 280 269 266 265 257 250 250 256 265 276 286 290 289 292 294 294 296 289 280 276 273 271 265 259 253 243 244 248 253 254 252 256 261 253 247 248 248 244 238 237 239 238 239 238 234 230 227 225 222 221 224 226
324 324 324 327 329 331 333 335 337 340 342 343 341 340 340 340 338 337 338 338 333 330 329 328 330 330 328 326 324 323 321 318 318 314 301 286 272 265 265 262 256 252 250 256 268 280 289 289 286 292 295 298 301 293 282 270 262 259 251 245 245 243 242 244 251 254 251 255 260 257 251 248 244 236 231 233 236 235 237 239 237 233 229 225 220 217 218 221
324 323 322 325 328 329 331 333 335 337 340 341 340 339 339 339 337 336 337 334 321 317 321 325 330 328 328 330 327 327 325 320 318 313 299 285 273 266 263 259 254 249 250 259 269 280 290 290 290 297 302 306 306 300 287 268 256 248 236 233 235 237 243 250 255 255 252 254 258 258 258 254 246 236 232 233 234 234 236 240 239 234 231 225 218 215 214 215
323 322 321 323 326 328 329 331 333 334 337 338 339 338 337 337 336 336 337 331 309 310 319 325 333 333 333 334 330 330 329 323 320 315 302 291 281 270 262 255 248 245 252 260 269 281 293 296 298 306 311 313 311 305 287 268 259 240 224 229 233 233 237 247 255 259 256 255 259 260 261 258 250 242 237 235 237 235 234 239 238 232 229 226 220 216 213 211
322 321 321 322 324 326 327 329 331 332 333 336 337 336 335 335 335 335 336 329 304 305 319 325 336 339 337 336 334 332 330 327 323 318 307 296 282 270 261 252 247 248 254 263 273 286 299 303 303 311 318 318 316 309 290 270 257 233 219 223 224 225 230 240 252 263 265 264 267 267 264 258 250 245 239 238 239 234 236 247 240 228 225 224 221 219 215 212
320 320 320 320 321 324 325 327 328 328 330 333 335 335 333 332 333 335 336 328 307 303 317 328 338 341 339 338 336 334 333 331 328 320 309 295 277 264 255 251 252 255 260 271 281 291 306 310 310 318 324 324 320 311 293 267 244 225 217 216 215 217 229 242 252 261 266 266 264 263 265 253 242 239 236 238 241 240 248 261 242 224 224 222 221 221 218 216
318 319 319 319 320 322 323 324 325 325 326 330 332 332 331 330 331 335 335 327 309 304 318 333 338 341 342 340 339 338 338 336 332 322 310 295 273 253 244 252 264 265 272 279 285 300 315 320 322 326 328 327 322 314 294 257 236 230 223 213 209 210 222 244 259 262 264 263 247 230 237 240 234 233 236 239 241 242 247 251 223 212 217 219 219 221 220 220
315 316 317 318 318 320 320 321 323 322 323 326 328 329 328 327 329 333 334 326 308 304 319 333 337 341 344 343 343 343 341 339 334 328 319 287 241 182 157 297 301 293 295 291 298 316 326 331 330 329 331 329 326 324 307 249 227 230 223 208 201 201 206 225 247 254 257 251 238 221 219 232 231 229 231 223 215 216 207 184 183 197 207 209 209 213 217 222
312 314 315 316 316 318 318 319 320 320 320 322 324 325 326 327 328 331 333 325 306 304 317 328 335 340 344 345 346 346 344 341 337 337 340 174 183 167 139 29 336 318 312 307 317 330 336 337 332 331 336 333 331 338 340 292 219 214 199 187 189 193 195 206 225 240 244 230 224 219 201 203 193 184 173 150 140 140 136 134 150 174 190 189 184 189 199 209
311 312 313 314 314 316 316 316 318 318 317 319 320 321 324 326 326 329 332 324 305 302 311 322 332 338 343 348 350 348 346 343 341 344 6 157 173 173 155 354 342 334 330 326 330 337 342 341 335 335 340 339 343 358 356 339 214 186 178 174 180 189 193 200 213 222 216 197 186 165 131 131 135 139 135 131 127 109 97 102 116 137 161 166 165 171 179 187
310 311 312 312 312 313 314 315 316 316 315 316 317 318 321 325 325 327 331 323 303 298 307 319 331 337 344 350 352 350 347 344 346 353 53 165 192 210 267 329 333 333 335 334 335 342 347 345 341 340 341 346 1 14 7 29 117 160 172 170 175 185 187 190 203 207 195 186 179 169 162 149 139 141 138 132 127 108 89 87 92 102 118 135 151 165 173 182
310 311 312 312 311 311 312 314 314 314 314 314 313 314 318 323 323 325 328 322 301 295 306 318 328 335 344 350 352 351 347 342 343 353 102 177 211 237 280 316 325 329 333 338 341 351 353 348 348 346 344 352 13 24 23 66 109 144 165 170 174 182 183 183 191 194 190 189 182 176 186 181 164 158 153 139 123 103 87 81 81 87 96 105 125 146 156 166
308 311 312 311 309 309 311 313 313 313 312 311 311 311 315 319 320 323 326 319 298 292 301 312 323 333 342 348 350 350 347 337 328 327 267 201 225 253 292 314 323 326 332 345 353 358 358 356 359 355 346 354 18 40 47 73 115 141 161 174 179 180 181 182 183 183 186 185 182 185 187 184 186 182 170 150 117 94 84 80 79 82 89 94 104 120 129 141
305 309 311 310 308 308 310 311 311 311 311 310 308 308 310 314 316 319 322 314 295 287 294 305 320 330 338 344 349 350 345 329 310 301 277 246 247 260 292 313 320 321 328 349 359 359 2 7 13 8 355 359 25 47 58 70 111 151 163 174 181 181 182 184 184 185 184 176 181 198 192 188 206 204 181 159 132 101 93 94 93 93 96 102 121 137 141 158
301 306 310 309 307 307 308 309 310 309 309 308 306 304 305 307 310 316 318 309 290 283 290 300 315 326 334 341 346 350 345 325 298 287 272 255 249 247 275 305 309 306 320 347 1 1 1 8 18 21 15 16 34 50 61 76 99 143 161 170 180 184 184 186 190 194 189 183 190 202 198 200 214 214 207 207 201 180 162 156 156 170 184 202 216 232 241 232
297 302 307 307 304 304 305 306 307 307 307 306 304 303 302 303 306 313 315 304 284 279 287 296 308 320 332 340 344 348 346 326 291 275 264 250 242 240 260 297 303 300 313 340 0 360 356 3 15 24 29 35 47 57 64 80 99 128 156 170 181 187 187 189 193 198 197 197 201 205 208 218 228 233 241 244 243 240 225 218 221 220 221 228 235 241 243 241
293 298 302 304 302 301 301 302 304 305 305 304 303 302 300 300 303 310 310 299 280 274 282 289 299 314 331 340 341 344 346 331 289 266 259 249 239 234 245 276 290 292 303 327 349 353 353 4 15 22 32 41 50 59 68 79 94 117 147 169 182 191 197 199 201 203 204 207 211 217 226 236 239 244 252 257 258 254 244 240 240 240 245 251 252 250 245 241
288 292 297 300 300 299 297 298 300 301 301 302 301 300 298 298 301 305 305 296 277 269 276 282 293 311 329 339 340 342 345 337 296 266 261 253 242 231 230 247 265 277 295 314 328 340 342 352 15 24 25 31 40 49 63 74 86 105 132 159 176 189 201 209 213 212 210 213 219 227 237 246 249 251 253 250 248 248 253 258 263 267 271 270 264 257 250 247
281 286 291 295 297 296 294 294 296 296 297 299 299 297 295 295 297 299 299 292 274 263 269 276 288 307 325 337 339 341 345 342 312 272 263 257 245 230 221 229 249 264 285 302 311 329 332 332 7 31 21 19 34 45 59 69 74 90 116 138 159 177 191 205 215 218 217 222 229 235 242 249 253 253 251 248 250 254 259 263 266 267 266 263 261 264 267 267
Height
5814 5813 5812 5811 5809 5808 5807 5805 5804 5803 5801 5800 5799 5798 5797 5796 5795 5794 5793 5793 5792 5792 5791 5791 5790 5790 5790 5789 5789 5789 5788 5788 5788 5788 5788 5788 5789 5789 5790 5790 5790 5791 5791 5792 5792 5793 5794 5794 5795 5796 5796 5797 5797 5798 5800 5800 5802 5802 5803 5804 5806 5808 5808 5809 5811 5811 5812 5813 5813 5813 5813 5813 5813 5814 5815 5817 5819 5819 5821 5821 5822 5824 5826 5828 5829 5829 5829 5830
5813 5811 5810 5809 5808 5806 5805 5804 5802 5801 5799 5798 5797 5796 5795 5793 5792 5791 5791 5790 5789 5789 5788 5788 5788 5787 5787 5787 5786 5786 5786 5786 5786 5786 5786 5786 5786 5787 5787 5787 5788 5788 5788 5789 5790 5790 5791 5791 5792 5793 5793 5794 5795 5796 5797 5798 5799 5799 5800 5802 5803 5803 5804 5806 5807 5808 5809 5810 5810 5810 5810 5811 5810 5811 5813 5815 5816 5817 5819 5819 5820 5822 5824 5825 5826 5827 5827 5828
5811 5810 5808 5807 5806 5805 5803 5802 5800 5799 5798 5796 5795 5794 5792 5791 5790 5789 5788 5787 5787 5786 5786 5786 5785 5785 5785 5784 5784 5784 5784 5783 5783 5783 5783 5783 5783 5784 5784 5785 5785 5785 5786 5786 5787 5787 5788 5789 5789 5790 5791 5791 5792 5793 5794 5795 5795 5796 5797 5798 5799 5799 5801 5803 5803 5804 5806 5806 5807 5807 5807 5808 5808 5808 5810 5812 5813 5815 5817 5817 5818 5820 5821 5822 5824 5825 5825 5826
5810 5808 5807 5805 5804 5803 5801 5800 5798 5797 5795 5794 5793 5792 5790 5789 5787 5786 5785 5785 5784 5783 5783 5783 5782 5782 5782 5782 5781 5781 5781 5781 5781 5781 5781 5781 5781 5781 5781 5782 5782 5783 5783 5783 5784 5785 5785 5786 5787 5787 5788 5789 5790 5790 5791 5792 5792 5793 5794 5794 5795 5796 5798 5798 5799 5801 5802 5803 5804 5803 5804 5805 5804 5805 5807 5808 5810 5813 5814 5814 5815 5817 5818 5820 5821 5822 5823 5824
5808 5806 5805 5804 5802 5801 5799 5798 5796 5794 5793 5792 5791 5789 5788 5786 5785 5784 5783 5782 5781 5780 5780 5780 5780 5779 5779 5779 5779 5779 5778 5778 5778 5778 5778 5778 5778 5778 5778 5779 5779 5780 5780 5781 5781 5782 5783 5784 5784 5785 5785 5786 5787 5787 5788 5789 5789 5790 5791 5791 5792 5793 5794 5794 5795 5797 5798 5799 5800 5800 5801 5801 5801 5803 5803 5805 5807 5809 5810 5810 5812 5815 5816 5817 5818 5819 5821 5821
5807 5805 5803 5802 5800 5799 5797 5796 5794 5792 5791 5789 5788 5787 5785 5784 5783 5781 5780 5779 5778 5778 5777 5777 5777 5777 5776 5776 5776 5776 5776 5775 5776 5776 5775 5775 5775 5775 5776 5776 5776 5777 5777 5778 5778 5779 5780 5781 5781 5782 5782 5783 5783 5784 5785 5786 5786 5787 5787 5788 5789 5790 5790 5791 5792 5793 5794 5796 5797 5797 5797 5797 5799 5799 5800 5802 5804 5806 5806 5808 5810 5811 5813 5815 5816 5817 5818 5819
5805 5803 5802 5800 5799 5797 5795 5794 5792 5790 5788 5787 5786 5784 5783 5781 5780 5779 5778 5777 5776 5775 5775 5775 5774 5774 5774 5774 5773 5773 5773 5773 5773 5773 5773 5773 5773 5773 5773 5773 5773 5774 5774 5775 5775 5776 5777 5778 5779 5779 5780 5780 5781 5781 5782 5783 5783 5784 5784 5785 5785 5786 5787 5787 5788 5789 5791 5792 5793 5794 5794 5795 5796 5796 5796 5799 5801 5802 5803 5805 5807 5808 5810 5812 5813 5814 5816 5816
5804 5802 5800 5798 5797 5795 5793 5792 5790 5788 5786 5785 5783 5782 5780 5779 5778 5776 5775 5774 5773 5773 5772 5772 5772 5771 5771 5771 5771 5770 5770 5770 5770 5770 5770 5770 5770 5770 5770 5770 5771 5771 5772 5772 5773 5773 5774 5775 5776 5776 5776 5777 5778 5778 5779 5780 5780 5780 5781 5782 5782 5783 5783 5784 5785 5786 5787 5788 5789 5790 5791 5791 5792 5792 5794 5796 5797 5798 5800 5802 5803 5805 5806 5808 5809 5811 5813 5814
5803 5801 5799 5797 5795 5793 5791 5789 5787 5786 5784 5782 5781 5779 5778 5777 5775 5773 5772 5772 5771 5770 5770 5770 5769 5769 5769 5768 5768 5768 5768 5767 5767 5767 5767 5767 5767 5767 5767 5768 5768 5769 5769 5769 5770 5771 5771 5772 5773 5773 5773 5774 5774 5775 5776 5776 5777 5777 5778 5778 5779 5779 5780 5780 5781 5782 5783 5784 5785 5786 5787 5787 5788 5791 5792 5793 5793 5795 5797 5799 5800 5801 5803 5804 5806 5807 5809 5811
5801 5800 5798 5795 5793 5792 5790 5788 5785 5784 5782 5780 5778 5776 5775 5774 5773 5771 5770 5769 5768 5768 5768 5767 5767 5767 5766 5766 5765 5765 5765 5765 5765 5764 5764 5764 5764 5765 5765 5766 5766 5766 5766 5767 5767 5768 5768 5769 5769 5770 5770 5771 5771 5772 5773 5773 5774 5774 5775 5775 5776 5776 5777 5777 5778 5778 5779 5780 5781 5782 5784 5784 5786 5789 5788 5787 5789 5791 5794 5796 5796 5798 5799 5801 5803 5804 5806 5808
5800 5799 5796 5794 5792 5790 5788 5786 5783 5782 5780 5778 5776 5774 5773 5772 5770 5769 5768 5767 5766 5766 5765 5765 5765 5765 5764 5764 5763 5763 5762 5762 5762 5762 5761 5761 5761 5762 5762 5763 5763 5763 5763 5764 5764 5765 5765 5765 5766 5767 5767 5768 5769 5769 5770 5770 5771 5772 5772 5772 5773 5774 5774 5775 5775 5775 5776 5777 5778 5779 5780 5782 5784 5784 5783 5783 5786 5788 5790 5793 5794 5794 5796 5798 5800 5801 5803 5804
5799 5797 5795 5792 5790 5789 5787 5784 5781 5780 5778 5776 5774 5772 5770 5769 5768 5767 5766 5765 5764 5764 5763 5763 5763 5762 5762 5761 5761 5760 5760 5759 5759 5759 5759 5759 5759 5759 5759 5760 5760 5760 5761 5761 5762 5762 5762 5762 5763 5764 5765 5766 5766 5767 5768 5768 5769 5769 5770 5770 5770 5771 5772 5772 5772 5773 5773 5773 5775 5776 5777 5779 5779 5780 5780 5781 5783 5784 5786 5789 5790 5790 5792 5794 5797 5799 5800 5801
5798 5796 5794 5791 5789 5787 5785 5782 5780 5778 5776 5774 5771 5770 5768 5767 5765 5764 5764 5763 5762 5762 5761 5761 5761 5760 5760 5759 5759 5758 5757 5757 5757 5757 5757 5757 5757 5757 5757 5757 5757 5758 5758 5758 5759 5759 5759 5760 5761 5762 5763 5763 5764 5765 5765 5766 5767 5767 5768 5768 5768 5769 5769 5769 5770 5770 5770 5771 5772 5774 5774 5774 5775 5776 5777 5778 5779 5780 5782 5784 5785 5785 5788 5791 5793 5795 5797 5798
5796 5794 5792 5790 5787 5785 5783 5780 5778 5776 5774 5772 5769 5768 5766 5764 5763 5762 5761 5761 5760 5760 5759 5759 5759 5758 5758 5757 5757 5756 5755 5755 5754 5754 5754 5754 5754 5754 5754 5755 5755 5755 5755 5756 5756 5757 5757 5758 5759 5760 5760 5761 5762 5763 5764 5765 5765 5765 5766 5765 5766 5766 5765 5766 5767 5767 5767 5768 5769 5771 5772 5770 5771 5773 5774 5774 5775 5776 5777 5779 5780 5782 5785 5787 5789 5792 5793 5794
5795 5793 5791 5788 5786 5784 5781 5779 5776 5774 5772 5770 5767 5765 5764 5762 5761 5760 5760 5759 5759 5758 5757 5757 5756 5756 5756 5755 5754 5754 5753 5753 5752 5752 5752 5752 5752 5752 5752 5752 5752 5753 5753 5753 5754 5754 5755 5756 5757 5758 5759 5760 5760 5761 5762 5762 5762 5763 5763 5763 5764 5763 5762 5763 5764 5764 5764 5765 5766 5768 5769 5767 5767 5770 5770 5770 5771 5771 5773 5775 5776 5778 5781 5783 5785 5788 5790 5791
5793 5791 5789 5787 5784 5782 5780 5777 5775 5772 5770 5768 5765 5763 5762 5761 5759 5758 5758 5758 5757 5756 5755 5755 5754 5754 5753 5753 5752 5752 5751 5751 5750 5750 5749 5749 5749 5750 5750 5750 5750 5750 5751 5751 5752 5753 5753 5755 5756 5756 5757 5758 5758 5759 5760 5760 5760 5760 5760 5760 5761 5761 5760 5760 5761 5761 5761 5762 5763 5765 5766 5764 5764 5766 5766 5767 5767 5767 5769 5770 5771 5773 5776 5779 5781 5783 5785 5787
5792 5790 5788 5785 5782 5780 5778 5776 5773 5771 5768 5766 5763 5761 5760 5759 5758 5756 5756 5756 5756 5755 5754 5753 5752 5752 5751 5750 5750 5750 5749 5748 5748 5748 5747 5747 5747 5747 5748 5748 5748 5748 5749 5749 5750 5751 5752 5753 5754 5755 5756 5756 5757 5757 5757 5757 5757 5758 5758 5758 5758 5758 5758 5757 5757 5758 5759 5759 5760 5761 5762 5761 5761 5762 5762 5763 5763 5764 5765 5765 5767 5768 5771 5774 5776 5779 5781 5782
5790 5788 5786 5784 5781 5779 5776 5774 5771 5769 5767 5764 5762 5760 5758 5757 5756 5755 5754 5754 5754 5753 5753 5751 5750 5750 5749 5748 5748 5748 5747 5746 5746 5746 5746 5745 5745 5745 5745 5746 5746 5747 5747 5747 5748 5749 5750 5751 5752 5753 5754 5754 5754 5755 5755 5754 5755 5755 5755 5755 5755 5755 5755 5754 5754 5755 5756 5756 5757 5758 5758 5758 5758 5759 5759 5759 5759 5760 5760 5761 5762 5764 5765 5768 5771 5774 5776 5778
5789 5787 5784 5782 5780 5777 5775 5773 5770 5768 5765 5763 5761 5758 5756 5755 5754 5753 5752 5752 5752 5752 5751 5750 5749 5748 5747 5746 5746 5745 5745 5744 5744 5744 5744 5743 5743 5743 5743 5744 5744 5745 5745 5745 5746 5747 5748 5749 5750 5751 5751 5752 5752 5752 5752 5752 5752 5752 5752 5752 5752 5752 5752 5752 5751 5752 5753 5753 5753 5754 5754 5755 5755 5755 5755 5755 5756 5756 5756 5756 5757 5759 5760 5763 5766 5769 5771 5773
5787 5785 5783 5781 5778 5776 5774 5771 5769 5766 5764 5762 5760 5757 5755 5754 5753 5751 5751 5750 5750 5750 5749 5749 5747 5746 5746 5745 5744 5743 5743 5742 5742 5742 5742 5741 5741 5741 5742 5742 5742 5743 5743 5743 5744 5746 5747 5747 5748 5748 5749 5749 5749 5749 5749 5749 5749 5749 5749 5749 5749 5749 5749 5749 5748 5748 5750 5750 5750 5751 5751 5751 5751 5751 5752 5752 5752 5753 5753 5753 5753 5754 5756 5758 5761 5764 5767 5768
5785 5784 5781 5779 5777 5775 5772 5770 5768 5765 5763 5761 5758 5756 5754 5752 5751 5750 5749 5749 5748 5748 5747 5747 5746 5745 5744 5743 5742 5742 5741 5741 5740 5740 5740 5740 5740 5740 5740 5740 5740 5741 5741 5742 5743 5744 5745 5745 5745 5746 5746 5747 5747 5747 5746 5746 5746 5746 5746 5746 5746 5746 5745 5745 5745 5745 5746 5747 5747 5747 5747 5747 5748 5748 5749 5749 5749 5749 5750 5750 5750 5750 5751 5753 5756 5759 5762 5765
5784 5782 5780 5778 5776 5773 5771 5768 5766 5764 5762 5759 5757 5754 5752 5751 5749 5748 5748 5747 5747 5746 5745 5745 5744 5743 5743 5742 5741 5740 5740 5739 5739 5738 5738 5738 5738 5738 5739 5739 5739 5739 5739 5740 5741 5742 5743 5742 5742 5743 5744 5744 5744 5744 5744 5744 5744 5744 5744 5744 5744 5744 5743 5742 5742 5742 5743 5744 5744 5744 5744 5744 5744 5745 5745 5746 5746 5747 5747 5747 5747 5747 5748 5749 5752 5755 5758 5761
5782 5780 5778 5776 5774 5772 5770 5767 5765 5763 5760 5758 5755 5753 5750 5749 5748 5747 5746 5746 5745 5745 5744 5743 5743 5742 5741 5740 5740 5739 5738 5738 5737 5737 5737 5737 5737 5737 5737 5737 5737 5737 5737 5738 5739 5740 5741 5740 5740 5740 5741 5741 5741 5741 5741 5741 5741 5741 5741 5741 5741 5740 5740 5740 5739 5739 5740 5741 5741 5741 5741 5741 5741 5742 5742 5743 5743 5744 5744 5744 5744 5745 5745 5747 5749 5752 5754 5757
5781 5779 5777 5775 5773 5771 5768 5766 5764 5762 5759 5757 5754 5751 5749 5748 5747 5746 5745 5744 5744 5743 5743 5742 5741 5741 5740 5739 5739 5738 5737 5737 5736 5735 5735 5735 5735 5735 5735 5735 5735 5735 5735 5736 5737 5738 5739 5738 5738 5738 5738 5739 5739 5739 5739 5739 5739 5739 5738 5739 5738 5737 5738 5737 5737 5737 5738 5738 5738 5739 5738 5738 5738 5739 5739 5740 5740 5740 5741 5741 5742 5742 5744 5745 5746 5748 5750 5753
5779 5778 5775 5773 5772 5770 5767 5765 5763 5761 5758 5756 5753 5751 5749 5748 5746 5745 5744 5743 5743 5742 5741 5740 5740 5739 5739 5738 5737 5737 5736 5735 5735 5734 5734 5734 5734 5734 5734 5734 5735 5735 5734 5734 5735 5736 5736 5736 5736 5736 5736 5736 5736 5737 5737 5737 5736 5736 5735 5735 5735 5735 5735 5735 5734 5735 5736 5735 5735 5736 5736 5735 5734 5735 5735 5736 5737 5737 5738 5739 5739 5741 5742 5743 5744 5745 5747 5749
5778 5776 5774 5772 5770 5768 5766 5764 5762 5760 5757 5755 5752 5750 5749 5748 5746 5745 5744 5743 5741 5740 5739 5739 5738 5737 5737 5736 5735 5735 5735 5734 5734 5734 5733 5733 5733 5732 5733 5733 5734 5734 5733 5733 5734 5735 5734 5734 5734 5734 5734 5734 5734 5734 5734 5734 5734 5733 5732 5732 5732 5732 5732 5732 5733 5733 5733 5732 5732 5733 5733 5732 5731 5730 5732 5733 5733 5734 5734 5735 5737 5738 5740 5741 5742 5743 5745 5747
5776 5775 5773 5771 5769 5767 5765 5762 5761 5759 5757 5754 5752 5750 5749 5748 5746 5745 5743 5742 5741 5739 5738 5737 5737 5736 5735 5735 5734 5734 5734 5733 5733 5733 5732 5732 5732 5731 5732 5733 5732 5732 5731 5732 5732 5732 5732 5732 5732 5732 5732 5732 5732 5732 5731 5732 5732 5731 5729 5729 5729 5729 5729 5730 5731 5731 5730 5729 5729 5730 5730 5731 5729 5727 5728 5730 5730 5731 5732 5732 5734 5735 5737 5738 5740 5741 5743 5744
5775 5773 5771 5770 5768 5766 5764 5761 5759 5758 5756 5754 5751 5749 5748 5747 5746 5744 5742 5741 5740 5739 5738 5736 5735 5734 5734 5733 5733 5733 5733 5733 5732 5732 5731 5731 5731 5731 5731 5731 5731 5730 5730 5731 5731 5730 5729 5730 5730 5730 5730 5730 5730 5729 5729 5729 5729 5728 5727 5727 5726 5726 5727 5727 5728 5728 5728 5727 5727 5726 5726 5728 5726 5724 5725 5727 5727 5728 5729 5729 5730 5732 5733 5736 5737 5739 5740 5742
5773 5771 5770 5768 5767 5765 5763 5761 5759 5757 5755 5753 5751 5749 5748 5746 5745 5743 5742 5740 5739 5738 5737 5735 5734 5733 5733 5733 5733 5732 5732 5732 5731 5731 5730 5729 5729 5729 5730 5729 5729 5729 5729 5729 5729 5728 5728 5728 5728 5728 5728 5728 5727 5727 5727 5727 5726 5725 5725 5724 5724 5724 5725 5725 5726 5725 5725 5725 5725 5723 5723 5724 5724 5721 5722 5724 5724 5725 5726 5726 5728 5729 5730 5732 5735 5737 5738 5739
5772 5770 5768 5767 5765 5764 5762 5760 5758 5756 5754 5752 5750 5749 5747 5745 5744 5742 5740 5739 5738 5736 5735 5734 5733 5733 5732 5732 5732 5732 5732 5731 5730 5729 5729 5728 5728 5727 5728 5727 5727 5728 5727 5727 5727 5727 5726 5726 5726 5726 5725 5725 5725 5725 5724 5724 5724 5723 5723 5722 5722 5722 5722 5722 5723 5723 5722 5722 5721 5721 5721 5722 5721 5719 5720 5721 5721 5722 5723 5723 5725 5726 5727 5729 5731 5734 5735 5737
5771 5769 5767 5765 5764 5762 5760 5759 5757 5755 5753 5751 5750 5748 5746 5745 5743 5741 5739 5738 5737 5735 5734 5733 5733 5732 5732 5732 5732 5731 5730 5730 5729 5728 5728 5727 5727 5726 5726 5726 5726 5726 5726 5726 5725 5725 5725 5724 5724 5723 5723 5723 5722 5722 5722 5721 5721 5721 5720 5720 5720 5721 5720 5720 5720 5720 5720 5719 5718 5718 5718 5719 5718 5716 5718 5719 5719 5719 5720 5721 5722 5723 5725 5726 5728 5731 5733 5734
5769 5768 5765 5764 5762 5761 5759 5757 5755 5754 5752 5750 5748 5747 5745 5744 5742 5740 5739 5737 5735 5734 5733 5733 5732 5732 5732 5731 5731 5730 5729 5728 5728 5727 5727 5726 5726 5725 5725 5724 5724 5724 5724 5723 5723 5723 5723 5723 5722 5722 5721 5720 5720 5720 5719 5719 5718 5718 5718 5719 5719 5719 5719 5719 5718 5718 5718 5717 5716 5716 5716 5716 5715 5715 5716 5717 5716 5717 5717 5718 5719 5720 5722 5724 5725 5728 5730 5732
5768 5766 5764 5762 5761 5759 5758 5756 5754 5753 5751 5749 5747 5746 5745 5743 5741 5740 5738 5736 5734 5733 5733 5732 5732 5732 5731 5730 5730 5729 5728 5727 5726 5726 5725 5725 5724 5723 5722 5722 5722 5722 5722 5722 5721 5722 5721 5721 5720 5720 5719 5718 5718 5718 5717 5716 5716 5716 5717 5717 5717 5718 5718 5717 5717 5717 5717 5715 5714 5714 5714 5713 5713 5714 5714 5714 5714 5715 5715 5715 5716 5717 5719 5721 5723 5725 5727 5729
5766 5765 5763 5761 5760 5758 5756 5754 5753 5751 5750 5748 5746 5745 5744 5742 5741 5739 5737 5735 5733 5733 5732 5732 5731 5731 5731 5730 5729 5728 5727 5726 5725 5725 5724 5723 5722 5721 5720 5720 5720 5720 5720 5720 5720 5720 5720 5719 5718 5718 5717 5717 5716 5716 5715 5714 5715 5715 5715 5716 5716 5716 5716 5716 5716 5715 5715 5714 5712 5712 5712 5711 5712 5712 5712 5712 5712 5712 5712 5712 5713 5714 5716 5718 5720 5722 5725 5727
5764 5763 5761 5760 5758 5757 5755 5753 5752 5750 5748 5747 5745 5744 5742 5741 5740 5738 5736 5734 5733 5732 5732 5731 5731 5730 5730 5729 5728 5727 5726 5724 5723 5723 5722 5721 5719 5718 5718 5718 5718 5719 5719 5719 5718 5718 5718 5717 5717 5716 5716 5715 5714 5713 5712 5712 5712 5712 5713 5714 5714 5713 5713 5714 5714 5713 5713 5712 5711 5711 5710 5710 5710 5710 5709 5709 5709 5709 5710 5710 5710 5712 5713 5715 5717 5720 5722 5725
5762 5761 5760 5758 5757 5755 5754 5752 5750 5749 5747 5746 5744 5742 5741 5740 5739 5737 5735 5733 5732 5732 5731 5730 5730 5729 5728 5728 5727 5726 5724 5723 5722 5721 5720 5718 5717 5716 5716 5716 5716 5717 5717 5717 5717 5717 5717 5716 5715 5715 5714 5713 5712 5711 5710 5710 5710 5710 5711 5712 5711 5712 5712 5712 5712 5712 5711 5711 5710 5709 5708 5708 5708 5708 5707 5707 5707 5708 5708 5708 5708 5709 5710 5712 5714 5717 5720 5722
5760 5759 5758 5757 5755 5754 5752 5751 5749 5747 5746 5744 5743 5741 5740 5739 5737 5736 5734 5733 5732 5731 5730 5730 5729 5728 5727 5726 5725 5723 5722 5721 5720 5719 5718 5716 5715 5714 5714 5714 5715 5715 5716 5715 5715 5715 5715 5714 5714 5713 5712 5711 5710 5709 5708 5708 5708 5708 5709 5710 5710 5711 5711 5711 5711 5710 5710 5709 5708 5707 5706 5706 5706 5706 5706 5706 5706 5706 5706 5706 5706 5707 5708 5710 5712 5714 5716 5719
5758 5757 5756 5755 5754 5752 5751 5749 5748 5746 5745 5743 5742 5740 5738 5737 5736 5734 5733 5732 5731 5730 5729 5729 5728 5727 5726 5725 5723 5722 5721 5719 5718 5717 5716 5714 5713 5712 5712 5713 5713 5714 5714 5714 5714 5714 5714 5713 5712 5711 5710 5709 5708 5707 5706 5706 5706 5707 5707 5708 5709 5709 5709 5709 5709 5709 5708 5707 5707 5705 5705 5705 5704 5704 5704 5704 5704 5704 5704 5704 5704 5705 5706 5708 5710 5711 5714 5716
5756 5755 5754 5753 5752 5751 5750 5748 5746 5745 5743 5742 5740 5739 5737 5736 5734 5733 5732 5731 5730 5729 5728 5727 5727 5726 5725 5723 5722 5721 5719 5717 5716 5715 5714 5713 5712 5711 5712 5712 5713 5713 5713 5713 5713 5713 5713 5712 5710 5709 5708 5707 5706 5705 5704 5703 5704 5705 5706 5707 5708 5708 5708 5708 5708 5708 5707 5706 5706 5705 5704 5704 5703 5702 5702 5703 5703 5703 5703 5702 5702 5702 5704 5706 5708 5709 5712 5714
5754 5753 5752 5751 5750 5749 5748 5747 5745 5743 5742 5740 5739 5737 5736 5734 5733 5732 5730 5729 5729 5728 5727 5726 5726 5724 5723 5722 5721 5719 5717 5716 5715 5714 5712 5711 5711 5711 5711 5712 5712 5712 5712 5712 5712 5712 5711 5711 5709 5708 5706 5705 5704 5703 5702 5702 5702 5703 5705 5706 5707 5707 5707 5707 5707 5707 5706 5705 5705 5704 5704 5703 5702 5701 5702 5702 5702 5702 5702 5701 5700 5701 5703 5704 5706 5708 5710 5712
5751 5750 5750 5749 5748 5747 5746 5745 5744 5742 5740 5739 5738 5736 5734 5733 5732 5730 5729 5728 5727 5727 5726 5725 5724 5723 5722 5720 5719 5717 5716 5715 5714 5713 5711 5711 5711 5711 5711 5711 5711 5711 5711 5711 5711 5711 5710 5709 5708 5707 5705 5703 5702 5701 5700 5700 5701 5702 5703 5704 5705 5706 5706 5707 5707 5706 5705 5705 5704 5704 5703 5703 5702 5702 5701 5701 5701 5701 5701 5700 5699 5700 5702 5703 5704 5706 5708 5710
5749 5748 5748 5747 5746 5745 5744 5743 5742 5741 5739 5738 5736 5735 5733 5732 5730 5729 5727 5726 5726 5725 5725 5724 5723 5722 5721 5719 5718 5716 5715 5714 5713 5712 5711 5711 5711 5711 5711 5711 5711 5711 5711 5710 5710 5710 5709 5708 5707 5706 5704 5703 5701 5700 5699 5699 5700 5701 5701 5703 5704 5705 5705 5706 5706 5705 5705 5705 5704 5704 5703 5702 5702 5702 5701 5701 5702 5701 5701 5700 5699 5700 5701 5703 5704 5706 5707 5710
5747 5746 5745 5745 5744 5743 5742 5741 5741 5740 5738 5737 5735 5733 5731 5730 5729 5728 5726 5725 5724 5724 5724 5723 5722 5721 5720 5718 5716 5715 5714 5713 5712 5711 5711 5711 5711 5711 5711 5711 5711 5710 5710 5710 5709 5709 5708 5707 5706 5705 5703 5702 5701 5699 5699 5699 5699 5700 5701 5702 5703 5704 5704 5705 5705 5705 5705 5705 5705 5704 5703 5703 5703 5703 5702 5702 5702 5702 5702 5701 5700 5701 5702 5703 5704 5705 5707 5709
5744 5744 5743 5742 5742 5741 5740 5739 5739 5738 5737 5735 5734 5732 5730 5729 5727 5726 5725 5724 5723 5723 5723 5722 5721 5720 5718 5717 5715 5714 5713 5712 5711 5711 5711 5711 5711 5711 5711 5710 5710 5710 5710 5709 5709 5708 5708 5707 5706 5705 5703 5702 5700 5699 5699 5699 5699 5699 5700 5701 5702 5703 5704 5704 5705 5705 5705 5705 5705 5705 5704 5704 5704 5704 5704 5703 5703 5703 5703 5703 5702 5703 5703 5704 5704 5706 5707 5708
5741 5741 5740 5740 5739 5738 5737 5737 5736 5736 5735 5734 5732 5730 5728 5727 5726 5725 5724 5723 5722 5722 5722 5721 5720 5719 5717 5716 5714 5713 5712 5711 5711 5711 5710 5710 5710 5710 5710 5710 5710 5709 5709 5709 5708 5708 5707 5706 5706 5705 5703 5702 5700 5699 5699 5699 5699 5699 5699 5700 5701 5702 5703 5704 5705 5705 5705 5705 5705 5705 5705 5705 5705 5705 5705 5704 5704 5704 5704 5704 5704 5705 5705 5706 5706 5707 5707 5708
5739 5738 5738 5737 5737 5736 5735 5735 5734 5734 5733 5733 5731 5729 5727 5725 5724 5723 5722 5721 5721 5721 5721 5720 5719 5718 5716 5715 5714 5712 5711 5711 5710 5710 5710 5710 5710 5710 5710 5710 5709 5709 5708 5708 5708 5707 5707 5706 5705 5704 5703 5702 5700 5699 5699 5699 5699 5699 5699 5700 5701 5701 5702 5703 5704 5705 5705 5705 5705 5705 5705 5705 5705 5705 5705 5705 5705 5705 5705 5705 5705 5706 5706 5707 5707 5708 5708 5708
5736 5735 5735 5734 5734 5734 5733 5732 5732 5732 5732 5731 5730 5728 5726 5724 5723 5722 5721 5720 5720 5719 5719 5719 5718 5717 5716 5714 5713 5712 5710 5710 5709 5709 5709 5709 5709 5709 5709 5709 5709 5708 5708 5708 5708 5707 5706 5706 5705 5704 5703 5702 5700 5699 5699 5699 5699 5699 5699 5699 5700 5701 5702 5703 5704 5704 5704 5705 5705 5705 5705 5705 5705 5705 5705 5706 5706 5706 5706 5706 5706 5707 5707 5707 5708 5708 5708 5709
5733 5733 5732 5732 5731 5731 5731 5730 5730 5730 5730 5729 5728 5727 5725 5723 5722 5720 5720 5719 5718 5718 5718 5718 5717 5716 5715 5713 5712 5711 5709 5708 5708 5708 5708 5708 5709 5709 5709 5708 5708 5708 5707 5707 5707 5706 5706 5705 5705 5704 5703 5702 5700 5699 5699 5699 5699 5699 5699 5699 5700 5701 5702 5702 5703 5704 5704 5704 5704 5704 5705 5705 5705 5705 5706 5706 5707 5707 5707 5707 5707 5707 5707 5708 5708 5708 5709 5709
5730 5730 5730 5729 5729 5728 5728 5728 5727 5727 5727 5727 5727 5725 5724 5722 5720 5719 5718 5717 5717 5717 5717 5717 5716 5716 5714 5712 5711 5710 5708 5707 5707 5707 5707 5707 5708 5708 5708 5708 5707 5707 5707 5707 5706 5706 5706 5705 5704 5703 5703 5702 5701 5700 5699 5699 5699 5699 5699 5699 5700 5701 5702 5702 5703 5703 5704 5704 5704 5704 5704 5705 5705 5705 5706 5706 5706 5706 5707 5707 5707 5707 5707 5708 5708 5709 5709 5709
5726 5727 5727 5727 5726 5726 5726 5725 5725 5725 5725 5725 5724 5724 5722 5721 5719 5718 5717 5716 5716 5715 5716 5716 5715 5715 5713 5712 5710 5709 5707 5706 5705 5706 5706 5706 5706 5707 5707 5707 5707 5706 5706 5706 5706 5705 5705 5705 5704 5704 5703 5702 5701 5701 5700 5700 5699 5699 5699 5700 5700 5701 5701 5702 5703 5703 5704 5704 5704 5704 5704 5704 5705 5705 5705 5705 5705 5705 5705 5705 5705 5706 5706 5707 5707 5707 5708 5708
5723 5723 5724 5723 5724 5724 5723 5723 5723 5723 5722 5722 5722 5722 5721 5719 5718 5717 5716 5715 5714 5714 5714 5714 5714 5713 5712 5711 5709 5708 5706 5705 5704 5704 5705 5705 5705 5706 5706 5706 5706 5706 5706 5705 5705 5705 5705 5705 5704 5704 5703 5702 5702 5702 5701 5700 5700 5700 5700 5700 5700 5701 5701 5702 5702 5703 5704 5704 5704 5704 5704 5703 5703 5704 5704 5704 5704 5704 5704 5704 5704 5704 5704 5704 5705 5705 5705 5706
5719 5720 5720 5721 5721 5721 5721 5721 5721 5720 5720 5720 5720 5720 5719 5718 5717 5715 5714 5713 5713 5713 5713 5713 5713 5712 5711 5710 5708 5706 5705 5704 5703 5703 5704 5704 5704 5705 5705 5705 5706 5705 5705 5705 5704 5704 5704 5704 5704 5704 5704 5703 5703 5702 5701 5701 5701 5701 5700 5700 5700 5701 5701 5701 5702 5702 5703 5703 5703 5703 5703 5702 5702 5702 5703 5703 5703 5703 5702 5702 5702 5702 5702 5703 5703 5703 5703 5703